Location: A O Calhoun Middle School
(33.2198°N, 97.1397°W)
Time: 16:31:24
(UTC+00:00)

Cosmos 1538 Rocket - Pass Details

Date: 12 July 2022
Orbit: 752 x 791 km, 74.0° (Epoch: 13 August)

Event Time Altitude Azimuth Distance (km) Brightness Sun altitude
Exits shadow 09:46:29 34° 220° (SW) 1,244 4.5 -18.3°
Maximum altitude 09:48:40 62° 288° (WNW) 850 4.0 -18.0°
Drops below altitude 10° 09:53:48 10° 9° (N) 2,285 7.2 -17.2°
Sets 09:56:12 0° 13° (NNE) 3,210 8.2 -16.8°
